COSMOS 2463 (36519 NORAD) Tracking and Keplerian Element Data

This shows tracking and keplerian element data for the satellite.

Feedback or suggestion? Click here.




ElementValue
Catalog36519
NameCOSMOS 2463
Epoch Orbit78339
Epoch Day354.18335794
Epoch Year2025
RAAN21.2424
Inclination82.9605
Eccentricity0.0034737
Argument of Perigee266.6189
Mean Anonmoly161.2989
Mean Motion13.71649756
Decay Rate5.4E-07
L11 36519U 10017A 25354.18335794 .00000054 00000+0 43115-4 0 9998
L22 36519 82.9605 21.2424 0034737 266.6189 161.2989 13.71649756783398



Live tracking and technical data element details for COSMOS 2463 (NORAD 36519). COSMOS 2463 can be tracked NOW for your location showing map with azimuth and elevation plus other details from your city location.







IsCatalogInMostPopularTable: catalog: 36519, numindb: 487
Update: records affected: 1



GetName: 36519 COSMOS 2463

Hit Count: updated at: Thu, 21 May 2026 12:06:41 GMT